Other Public Products
Issued by NWS Grand Forks, ND

Home | Current Version | Previous Version | Graphics & Text | Print | Product List | Glossary On
Versions: 1 2 3 4 5 6 7 8 9 10 11 12 13 14 15 16 17 18 19 20 21 22 23 24 25 26 27 28 29 30 31 32 33 34 35 36 37 38 39 40 41 42 43 44 45 46 47 48 49 50
000
FPUS83 KFGF 070210
OPUFGF
PRAIRIE TO PINES WEATHER ROUNDUP
NATIONAL WEATHER SERVICE EASTERN NORTH DAKOTA/GRAND FORKS ND
900 PM CDT WED MAY 06 2015

 **SATELLITE DATA USED TO AUGMENT SKY COVER AT AUTOMATED STATIONS**
 *****  WEATHER ACROSS EASTERN NORTH DAKOTA  *****

CITY           SKY/WX    TMP DP  RH WIND       PRES   REMARKS
GRAND FORKS    CLOUDY    61  59  93 E10       29.67F
GRAND FORKS AF CLOUDY    60  59  94 E13       29.67F
GRAND CITY NWS   N/A     59 N/A N/A NE5         N/A
BUXTON         NOT AVBL
DEVILS LAKE    CLOUDY    59  55  88 E14       29.65F
FARGO          CLOUDY    65  61  87 SE18G24   29.67R
WAHPETON ARPT  MOCLDY    64  61  88 SE9       29.68S
$$

 *****  WEATHER ACROSS CENTRAL AND WESTERN NORTH DAKOTA  *****

CITY           SKY/WX    TMP DP  RH WIND       PRES   REMARKS
JAMESTOWN      CLOUDY    61  60  97 SE13      29.60F FOG
BISMARCK       CLOUDY    62  57  83 E8        29.61R
MINOT          LGT RAIN  58  57  97 N5        29.64R
MINOT AFB      DRIZZLE   60  60 100 N6        29.63S
GARRISON         N/A     60  57  89 N7        29.62S
WILLISTON      LGT RAIN  51  48  89 N16G24    29.74S
DICKINSON      CLOUDY    51  50  96 NW24G32   29.67R
HETTINGER      LGT RAIN  53  51  93 NW17      29.66R FOG
$$

 *****  OTHER OBSERVATIONS NORTHEAST NORTH DAKOTA  *****

CITY           SKY/WX    TMP DP  RH WIND       PRES   REMARKS
WALHALLA       LGT RAIN  59  59 100 SE12      29.70F
LANGDON        CLOUDY    59  59 100 SE18      29.70S FOG
CAVALIER       CLOUDY    61  61 100 SE8       29.72S FOG
GRAFTON        CLOUDY    61  61 100 E14       29.71F FOG
CANDO          CLOUDY    59  57  94 SE14      29.67F
FORT TOTTEN    NOT AVBL
ROLLA          NOT AVBL
RUGBY          NOT AVBL
 ***** THE ABOVE OBSERVATIONS ARE NON NWS ARE NOT QUALITY
        CONTROLLED AND MAY MIS-REPORT RAIN FOR SNOW...
$$

 *****  OTHER OBSERVATIONS SOUTHEAST NORTH DAKOTA *****

CITY           SKY/WX    TMP DP  RH WIND       PRES   REMARKS
COOPERSTOWN    NOT AVBL
VALLEY CITY    CLOUDY    61  61 100 SE10      29.64S FOG
OAKES            N/A     63  63 100 SE13      29.63R
GWINNER          N/A     64  64 100 SE15      29.65S
BUFFALO        NOT AVBL
WYNDMERE       NOT AVBL
 ***** THE ABOVE OBSERVATIONS ARE NON NWS ARE NOT QUALITY
       CONTROLLED AND MAY MIS-REPORT RAIN FOR SNOW...
$$

  *****  WEATHER ACROSS NORTHERN MINNESOTA  *****

CITY           SKY/WX    TMP DP  RH WIND       PRES   REMARKS
FLAG ISLAND    LGT RAIN  59  57  94 E8        29.79F
WARROAD        CLOUDY    55  52  88 E9        29.79F
ROSEAU         LGT RAIN  61  55  82 E7        29.78S
HALLOCK        CLOUDY    63  59  88 E12       29.72F
THF RVR FALLS  CLOUDY    61  55  82 E15       29.73F
HALSTAD        NOT AVBL
FOSSTON        MOCLDY    63  55  77 SE16G26   29.74S
BAUDETTE       CLOUDY    61  57  87 SE12      29.81F
WASKISH        CLOUDY    61  55  82 E9        29.81F
CROOKSTON      CLOUDY    63  57  82 SE13      29.69F
$$
  *****  WEATHER ACROSS CENTRAL AND WEST MINNESOTA  *****

CITY           SKY/WX    TMP DP  RH WIND       PRES   REMARKS
BEMIDJI        CLOUDY    63  55  76 SE13      29.79F
PARK RAPIDS    CLOUDY    63  59  87 SE13      29.77F
WADENA         LGT RAIN  63  61  94 SE16      29.75F
DETROIT LAKES  CLOUDY    63  59  88 SE13      29.74F
MOORHEAD       CLOUDY    64  61  88 SE12      29.68S
FERGUS FALLS   MOCLDY    66  63  88 SE16G25   29.72S
ELBOW LAKE     FAIR      64  60  87 S20G25    29.72S
MORRIS MN      MOCLDY    66  61  82 S13       29.73R
STAPLES        CLOUDY    63  59  88 SE12      29.78F
WHEATON        MOCLDY    63  59  88 SE13      29.71R
$$
  *****  WEATHER ELSEWHERE ACROSS MINNESOTA  *****

CITY           SKY/WX    TMP DP  RH WIND       PRES   REMARKS
DULUTH         CLOUDY    57  43  59 E18       29.93S
INTRNTL FALLS  CLOUDY    63  54  72 SE10      29.85S
ELY            CLOUDY    57  48  72 E7        29.94S
CLOQUET        CLOUDY    54  36  50 E9        29.92S
BRAINERD       CLOUDY    62  59  90 SE10      29.82F
HIBBING        CLOUDY    59  52  77 SE9       29.89S
ALEXANDRIA     CLOUDY    65  60  84 S14       29.77S
SAINT CLOUD    MOCLDY    67  61  81 SE14      29.81S
MINNEAPOLIS    MOCLDY    68  60  75 SE10      29.86S
$$

  *****  WEATHER ACROSS SOUTH DAKOTA  *****

CITY           SKY/WX    TMP DP  RH WIND       PRES   REMARKS
SIOUX FALLS    MOCLDY    67  59  75 SE21G29   29.69F
BROOKINGS      MOCLDY    64  61  88 S16G24    29.71S
WATERTOWN      MOCLDY    64  59  83 S16G29    29.69S
HURON          LGT RAIN  66  61  84 S17G24    29.63R
SISSETON         N/A     65  62  90 S14       29.66R
ABERDEEN       MOCLDY    62  59  90 S8        29.63R
MITCHELL       HVY RAIN  65  63  93 S15       29.65R FOG
PIERRE         MOCLDY    57  53  86 W8        29.58S
MOBRIDGE       LGT RAIN  61  59  93 S3        29.58R
RAPID CITY     LGT RAIN  51  47  86 NW28G40   29.66R
$$

  *****  SOME WEATHER IN NEARBY STATES *****

CITY           SKY/WX    TMP DP  RH WIND       PRES   REMARKS
GLASGOW MT     MOCLDY    56  33  42 N16       29.83R
GREAT FALLS MT CLEAR     52  22  30 NE10      29.91R
CHEYENNE WY    CLOUDY    47  44  90 N14G22    29.78R
SCOTTSBLUFF NE CLOUDY    53  48  83 NW22G29   29.70R
OMAHA NE       CLOUDY    69  59  70 SE21      29.76S THUNDER
DES MOINES IA  MOCLDY    70  58  65 S15       29.88S
DAVENPORT IA   MOCLDY    68  60  75 S7        29.99S
CHICAGO IL     MOCLDY    60  53  77 NE7       30.06S
EAU CLAIRE WI  CLOUDY    63  59  87 SE9       29.95F
LA CROSSE WI   CLOUDY    67  61  81 S7        29.95S
$$

  *****  SOME NATIONAL WEATHER *****

CITY           SKY/WX    TMP DP  RH WIND       PRES   REMARKS
LA GUARDIA NY  PTCLDY    63  40  42 SE3       30.24R
RALEIGH NC     CLOUDY    66  53  63 CALM      30.16R
ATLANTA GA     PTCLDY    73  52  47 SE3       30.13R
NEW ORLEANS LA PTCLDY    76  65  68 S9        30.02R
OKLAHOMA CITY  TSTM      63  61  94 NE12G28   29.88R VSB 3/4
ALBUQUERQUE NM MOCLDY    63  37  38 NW10      29.85S
SALT LAKE CITY RAIN      52  48  86 N15       29.70F
LOS ANGELES CA PTCLDY    59  49  69 W15       29.85F
BOISE ID       PTCLDY    61  17  18 NW14      29.77S
SEATTLE WA     MOSUNNY   59  36  42 N13       30.10R
$$

*** WEATHER ACROSS MANITOBA...SASKATCHEWAN AND ONTARIO ***
                ***ONTARIO***

CITY           SKY/WX    TMP DP  RH WIND       PRES   REMARKS
GERALDTON      PTCLDY    57  23  26 S5        30.07S
THUNDER BAY    MOCLDY    48  34  57 E8        30.05S
SIOUX LOOKOUT  CLOUDY    64  52  63 S5        29.90F
TORONTO        PTCLDY    57  36  44 S3        30.20R
BIG TROUT LK   PTCLDY    43  27  52 E9        30.00R
PICKLE LAKE    CLOUDY    66  34  30 SE10      29.91F
DRYDEN         MOCLDY    64  52  63 SE9       29.89S
KENORA         LGT RAIN  59  57  94 SE7       29.85F
$$
                *** MANITOBA***

CITY           SKY/WX    TMP DP  RH WIND       PRES   REMARKS
BRANDON        CLOUDY    59  59 100 SE9       29.68S FOG
DAUPHIN        CLOUDY    59  59 100 SE7       29.68S FOG
ISLAND LAKE    MOCLDY    52  34  50 E9G17     29.82R
PILOT MOUND      N/A     59  55  88 SE13        N/A
THE PAS        CLOUDY    34  32  93 N8G21     29.80R
THOMPSON       NOT AVBL
WINNIPEG       CLOUDY    63  59  88 SE15      29.73F
LYNN LAKE      CLOUDY    23  21  93 NE14G22   30.08R WCI  11
CHURCHILL      MOCLDY    21 N/A N/A N12         N/A  WCI   9
GILLAM         FRZ RAIN  23  21  93 NE17G26   30.10F WCI   9
$$
                ***SASKATCHEWAN***

CITY           SKY/WX    TMP DP  RH WIND       PRES   REMARKS
ESTEVAN        LGT RAIN  52  50  93 NW20G26   29.72R FOG
KINDERSLEY     MOCLDY    43  28  56 NW18G28   29.95R
LLOYDMINSTER   CLOUDY    34  30  86 NW13      29.96R WCI  25
PRINCE ALBERT  LGT RAIN  41  37  87 N5        29.86R
REGINA         CLOUDY    52  43  71 NW15G23   29.80R
YORKTON        LGT RAIN  50  48  93 NW16      29.73R



USA.gov is the U.S. government's official web portal to all federal, state and local government web resources and services.